Location: Ergnies
(50.0854°N, 2.0375°E)
Time: 16:02:13
(UTC+00:00)

Cosmos 921 Rocket - Pass Details

Date: 14 January 2026
Orbit: 564 x 620 km, 75.8° (Epoch: 18 February)

Event Time Altitude Azimuth Distance (km) Brightness Sun altitude
Rises 06:18:40 0° 214° (SSW) 2,836 6.3 -13.4°
Reaches altitude 10° 06:20:57 10° 219° (SW) 1,929 5.4 -13.1°
Maximum altitude 06:25:07 49° 295° (WNW) 763 3.1 -12.4°
Drops below altitude 10° 06:29:15 10° 12° (NNE) 1,909 5.5 -11.8°
Sets 06:31:31 0° 18° (NNE) 2,804 6.4 -11.5°
